Seattle, WA
on Friday, March 1, 2013

Friday
Previous Day Next Day
Daily Summary
 ActualAverageRecord
Temperature
Mean Temperature °F 44°F  
Max Temperature 59°F 52°F 62°F (1968)
Min Temperature 52°F 38°F 23°F (1971)
Degree Days
Heating Degree Days 9 20  
Month to date heating degree days 9 20  
Since 1 July heating degree days 3150 3274  
Cooling Degree Days 0 0  
Month to date cooling degree days 0 0  
Year to date cooling degree days 0 0  
Growing Degree Days2 (Base °F )  
Moisture
Dew Point 48°F   
Average Humidity 78    
Maximum Humidity 89    
Minimum Humidity 67    
Precipitation
Precipitation 0.16 in 0.13 in 0.84 in (1975)
Month to date precipitation 0.16 0.13  
Year to date precipitation 5.90 9.20  
Snow
Snow 0.00 in in 6.00 in (1989)
Month to date snowfall 0.0  
Since 1 July snowfall 0.6  
Snow Depth 0.00 in   
Wind
Wind Speed 12 mph   
Max Wind Speed 20 mph   
Max Gust Speed 29 mph   
Visibility 9 miles   
Events Rain   

Key: T is trace of precipitation, MM is missing value
Source: NWS Daily Summary
Time(PST)TemperatureDew PointHumidity Pressure Visibility Wind DirectionWind SpeedGust SpeedPrecipitationEvents Conditions
12:53 AM 51.8°F 48.2°F 88% 30.32 in 6.0 miles South 12.7 mph - N/A Rain Light Rain
1:53 AM 52.0°F 50.0°F 93% 30.35 in 2.0 miles South 13.8 mph 21.9 mph 0.06 in Rain Light Rain
2:40 AM 53.6°F 50.0°F 88% 30.33 in 5.0 miles South 18.4 mph 25.3 mph 0.04 in Rain Light Rain
2:53 AM 53.1°F 50.0°F 89% 30.35 in 6.0 miles South 17.3 mph - 0.04 in Rain Light Rain
3:26 AM 53.6°F 50.0°F 88% 30.33 in 10.0 miles South 13.8 mph 23.0 mph 0.01 in   Overcast
3:53 AM 53.1°F 48.9°F 86% 30.35 in 10.0 miles South 16.1 mph - 0.01 in   Overcast
4:53 AM 53.1°F 48.9°F 86% 30.35 in 10.0 miles South 13.8 mph 21.9 mph N/A   Overcast
5:44 AM 53.6°F 48.2°F 82% 30.33 in 10.0 miles South 11.5 mph - N/A   Overcast
5:53 AM 53.1°F 48.0°F 83% 30.36 in 10.0 miles South 10.4 mph - N/A   Overcast
6:10 AM 53.6°F 48.2°F 82% 30.34 in 10.0 miles South 12.7 mph - N/A   Overcast
6:53 AM 53.1°F 48.0°F 83% 30.36 in 10.0 miles South 13.8 mph - N/A   Overcast
7:53 AM 54.0°F 48.0°F 80% 30.38 in 10.0 miles South 13.8 mph - 0.00 in   Overcast
8:53 AM 53.1°F 48.0°F 83% 30.39 in 10.0 miles SW 8.1 mph - 0.00 in Rain Light Rain
9:53 AM 53.1°F 48.0°F 83% 30.39 in 10.0 miles SSW 13.8 mph - 0.00 in   Overcast
10:53 AM 55.0°F 48.0°F 77% 30.39 in 10.0 miles SSW 16.1 mph - N/A   Overcast
11:53 AM 57.0°F 48.0°F 72% 30.39 in 10.0 miles SSW 15.0 mph - N/A   Overcast
12:53 PM 57.9°F 48.0°F 70% 30.38 in 10.0 miles SSW 16.1 mph 24.2 mph N/A   Overcast
1:53 PM 57.9°F 46.9°F 67% 30.37 in 10.0 miles SSW 15.0 mph - N/A   Overcast
2:20 PM 57.2°F 46.4°F 67% 30.34 in 10.0 miles SW 15.0 mph - N/A   Overcast
2:53 PM 57.9°F 48.0°F 70% 30.36 in 10.0 miles SSW 12.7 mph - N/A   Overcast
3:53 PM 57.0°F 48.0°F 72% 30.36 in 10.0 miles SW 12.7 mph - 0.00 in   Overcast
4:53 PM 55.9°F 48.0°F 75% 30.35 in 10.0 miles SSW 11.5 mph - 0.00 in   Overcast
5:53 PM 55.4°F 48.2°F 77% 30.32 in 10.0 miles SSW 12.7 mph 21.9 mph N/A   Overcast
6:53 PM 54.0°F 48.0°F 80% 30.35 in 10.0 miles SSW 10.4 mph - N/A   Overcast
7:53 PM 54.0°F 48.0°F 80% 30.34 in 10.0 miles SSW 6.9 mph - N/A   Overcast
8:53 PM 54.0°F 48.0°F 80% 30.33 in 10.0 miles WSW 5.8 mph - N/A   Mostly Cloudy
9:53 PM 53.1°F 48.0°F 83% 30.33 in 10.0 miles SW 6.9 mph - N/A   Mostly Cloudy
10:53 PM 53.1°F 48.0°F 83% 30.33 in 10.0 miles SW 6.9 mph - N/A   Mostly Cloudy
11:53 PM 53.1°F 48.0°F 83% 30.31 in 10.0 miles South 6.9 mph - N/A   Mostly Cloudy
Moon Phase
Mar. 01 Mar. 04 Mar. 11 Mar. 19 Mar. 27
Sunrise:06:48 AM (PST) Moon Rise:10:57 PM (PST)3/1
Sunset:05:54 PM (PST) Moon Set:08:18 AM (PST)3/1

Copyright © 2014 The Weather Underground, Inc.